Zurück zum Katalog

DELTA 1 DEB

AktivSSO
NORAD 27576·DEBRIS·🇺🇸 United States

Gestartet Jun 12, 1975 von Vandenberg Space Force Base

Loading…

Nächste Überflüge (nächste 24 Stunden)

TLE

AktuellSource: Space-Track

Epoche: Sep 14, 2026, 08:40 UTC

1 27576U 75052LD  26257.36161514 -.00000005  00000-0  41020-4 0  9992
2 27576  99.2804  99.2451 0117397 109.3785  64.6689 13.68151357772614

Verfolge DELTA 1 DEB in Echtzeit mit AllMySat

Download on the App Store